ZACUBE-1 (TSHEPISOSAT) (39417 NORAD) Tracking and Keplerian Element Data

This shows tracking and keplerian element data for the satellite.

Feedback or suggestion? Click here.




ElementValue
Catalog39417
NameZACUBE-1 (TSHEPISOSAT)
Epoch Orbit57019
Epoch Day159.84729074
Epoch Year2024
RAAN116.0277
Inclination97.7341
Eccentricity0.0050352
Argument of Perigee189.2839
Mean Anonmoly170.7453
Mean Motion14.89163208
Decay Rate5.888E-05
L11 39417U 13066B 24159.84729074 .00005888 00000+0 61448-3 0 9996
L22 39417 97.7341 116.0277 0050352 189.2839 170.7453 14.89163208570197



Live tracking and technical data element details for ZACUBE-1 (TSHEPISOSAT) (NORAD 39417). ZACUBE-1 (TSHEPISOSAT) can be tracked NOW for your location showing map with azimuth and elevation plus other details from your city location.







IsCatalogInMostPopularTable: catalog: 39417, numindb: 708
Update: records affected: 1



GetName: 39417 ZACUBE-1 (TSHEPISOSAT)

Hit Count: updated at: Mon, 17 Jun 2024 23:46:31 GMT